Location: Cluj-Napoca
(46.7712°N, 23.6236°E)
Time: 18:53:50
(UTC+03:00)

ISS - Pass Details

Date: 31 May 2020
Orbit: 417 x 420 km, 51.6° (Epoch: 26 May)

Event Time Altitude Azimuth Distance (km) Brightness Sun altitude
Rises 23:25:21 0° 283° (WNW) 2,365 0.7 -16.2°
Reaches altitude 10° 23:28:25 10° 253° (WSW) 1,497 -0.8 -16.4°
Maximum altitude 23:29:54 12° 227° (SW) 1,355 -1.3 -16.5°
Enters shadow 23:30:04 12° 223° (SW) 1,357 -1.4 -16.6°
